Tracking 27126 objects as of 30-Mar-2023
HD Live streaming from Space Station
objects crossing your sky now

OPS 1948

Track OPS 1948 now!
OPS 1948 is classified as:


NORAD ID: 11558
Int'l Code: 1979-086A
Perigee: 30,325.5 km
Apogee: 41,288.3 km
Inclination: 5.6 °
Period: 1,436.8 minutes
Semi major axis: 42177 km
RCS: Unknown
Launch date: October 1, 1979
Source: United States (US)
Launch site: AIR FORCE EASTERN TEST RANGE (AFETR)
Your satellite tracking list
Your tracking list is empty




NASA's NSSDC Master Catalog

Two Line Element Set (TLE):
1 11558U 79086A   23088.48660365 -.00000219  00000-0  00000-0 0  9992
2 11558   5.6293   1.1228 1299592  68.2748 275.5375  1.00224774 14425
Source of the keplerian elements: McCants